Location: Kermapucano
(48.0667°N, 3.3000°W)
Time: 20:26:48
(UTC+00:00)

ATLAS CENTAUR R/B - Pass Details

Date: 29 November 2020
Orbit: 477 x 668 km, 64.7° (Epoch: 25 January)

Event Time Altitude Azimuth Distance (km) Brightness Sun altitude
Exits shadow 06:08:43 28° 291° (WNW) 980 2.0 -14.7°
Maximum altitude 06:10:16 43° 238° (WSW) 725 1.6 -14.5°
Drops below altitude 10° 06:14:01 10° 166° (SSE) 1,767 4.3 -13.9°
Sets 06:16:19 0° 160° (SSE) 2,685 5.4 -13.5°
